Lapse_Rate
5.4 5.6 5.6 6.2 6.4 7.0 7.5 8.1 8.8 8.5 9.0 9.4 8.6 7.9 7.7 7.0 7.2 6.1 6.3 6.0 5.4 5.4 5.5 5.4 5.3 5.1 5.2 5.7 5.9 5.6 5.5 6.0 5.7 5.7 5.6 5.7 5.8 5.6 5.4 6.0 5.8 5.7 5.6 5.6
6.0 5.8 6.2 6.7 7.0 7.2 7.6 7.8 8.2 9.4 9.5 9.6 9.3 8.7 8.0 7.4 7.3 5.7 5.4 5.9 5.5 5.0 5.5 5.3 5.2 5.1 5.0 5.9 6.1 5.7 5.7 6.0 5.7 5.7 5.5 5.6 5.7 5.6 5.1 5.0 5.5 5.5 5.6 5.8
6.2 6.7 6.8 6.8 7.2 7.3 7.6 7.7 8.0 8.7 9.5 9.7 9.5 8.1 7.6 7.5 7.0 6.1 5.7 5.9 5.5 5.3 5.5 5.4 5.4 5.2 5.2 6.0 6.2 5.9 5.8 6.0 5.7 5.6 5.5 5.5 5.7 5.7 5.4 5.2 5.5 5.7 5.7 5.7
6.5 6.7 7.2 7.1 7.0 7.5 7.5 7.9 7.8 8.1 8.7 9.6 9.7 9.6 7.5 7.5 5.9 7.0 6.8 5.9 5.9 5.7 5.6 5.6 5.3 5.2 5.6 6.1 6.1 5.9 5.9 5.9 5.7 5.7 5.6 5.5 5.7 5.9 5.6 5.2 5.6 5.7 5.8 5.8
6.9 7.0 7.1 7.2 7.3 7.4 7.6 8.1 8.1 7.9 8.0 8.7 9.4 9.7 9.6 7.9 7.2 7.4 7.0 6.5 6.2 6.1 5.6 5.7 6.0 6.3 6.0 6.0 6.2 6.0 5.8 5.8 5.7 5.9 5.8 5.6 5.4 5.5 5.8 5.5 5.0 5.7 5.6 5.7
6.9 7.4 7.4 7.3 7.6 7.4 7.5 7.8 7.7 8.0 8.2 8.3 8.3 9.6 9.6 8.0 8.0 8.0 8.1 7.0 6.1 6.4 6.1 5.9 5.7 5.8 5.8 5.9 6.2 6.1 5.9 5.9 5.6 5.7 6.0 5.9 5.4 5.4 5.7 5.5 5.3 5.6 5.4 5.5
8.0 7.5 7.5 7.7 7.4 7.4 7.5 7.7 7.9 8.2 8.6 8.1 8.1 8.7 8.9 9.5 9.0 8.0 7.8 6.7 6.5 6.4 6.6 6.0 5.6 5.5 6.4 6.6 6.6 6.5 6.2 6.0 5.9 5.7 5.9 6.1 5.6 5.5 5.6 5.6 5.6 5.6 5.8 5.7
8.8 9.5 8.3 8.3 7.9 8.0 7.9 7.9 8.4 8.1 8.8 8.4 8.4 8.5 8.0 8.6 9.0 8.6 7.9 7.8 7.0 6.8 6.3 6.3 5.6 5.7 6.4 6.6 6.7 6.5 6.8 6.2 6.0 5.8 5.8 6.2 5.9 5.6 5.6 5.7 5.6 5.5 5.5 5.6
8.2 9.0 9.5 9.4 8.8 8.5 8.3 8.9 8.3 9.4 9.6 9.5 9.6 8.9 8.8 8.8 9.2 8.0 7.4 8.1 7.6 7.0 6.9 6.3 6.0 5.8 6.3 6.7 6.8 6.9 7.0 6.6 6.1 6.0 5.7 5.9 6.0 5.8 5.9 5.9 5.7 5.6 5.6 5.0
7.6 7.8 8.6 8.9 9.3 9.5 9.1 9.2 9.4 9.3 9.5 9.3 9.7 9.7 9.4 9.1 8.9 9.2 8.2 8.4 7.8 6.5 6.1 6.8 6.3 5.9 6.0 6.9 6.7 6.5 6.7 6.8 6.5 6.2 6.0 6.1 6.1 6.0 6.0 5.8 5.8 5.9 5.7 5.5
7.0 7.5 7.8 8.5 8.8 9.1 9.2 9.0 9.3 9.4 9.5 9.7 9.6 9.7 9.7 9.3 9.3 9.1 8.9 8.4 7.3 5.9 5.3 7.4 6.9 6.5 6.8 6.6 6.7 6.6 6.4 6.6 6.5 6.1 6.0 5.9 5.9 5.9 5.9 6.0 5.9 5.9 6.0 5.9
6.6 6.8 7.2 8.3 8.6 9.4 8.7 8.8 9.3 9.2 9.1 9.5 9.5 9.5 9.3 9.3 9.5 9.4 9.3 9.3 8.7 7.7 5.8 5.4 7.4 6.7 6.7 7.0 6.8 7.0 6.7 6.5 6.5 6.4 6.3 6.3 6.0 6.1 6.0 6.3 6.1 6.0 6.1 6.1
5.5 7.0 7.5 7.8 8.2 8.8 9.4 8.8 8.7 8.9 9.0 8.8 9.7 8.9 9.5 9.2 9.6 9.7 9.6 9.5 9.5 9.2 7.6 7.7 7.3 6.8 6.6 6.8 6.6 6.9 7.1 6.8 6.5 6.3 6.3 6.3 6.2 6.2 6.4 6.4 6.5 6.3 6.2 6.2
6.0 6.4 7.0 7.5 8.9 8.4 9.0 9.5 8.9 9.3 9.3 8.9 8.8 9.0 9.4 9.2 9.2 9.2 9.3 8.9 8.9 8.8 9.3 9.1 8.2 7.9 6.9 6.8 6.8 6.6 6.7 6.7 6.8 6.6 6.3 6.4 6.5 6.6 6.4 6.4 6.6 6.6 6.5 6.3
7.0 6.9 6.9 7.2 7.3 7.7 8.2 8.8 9.3 9.1 8.7 8.8 8.8 8.9 7.3 7.3 7.8 8.3 8.3 8.6 8.2 8.3 8.3 8.6 8.5 7.2 6.8 6.4 6.9 6.7 6.6 6.6 6.8 6.8 6.6 6.5 6.6 6.6 6.6 6.4 6.5 6.5 6.6 6.6
7.2 7.3 7.1 6.3 7.4 7.2 7.5 7.9 8.5 8.4 8.1 7.9 8.1 7.5 7.2 6.8 6.8 7.1 7.5 7.6 7.2 7.0 7.9 7.5 6.9 6.5 6.2 6.1 7.1 7.0 6.8 6.9 6.7 7.1 6.9 6.5 6.4 6.5 6.5 6.5 6.6 6.5 6.5 6.8
7.8 7.2 7.5 7.4 7.7 7.9 7.8 7.9 8.3 8.3 7.9 7.6 6.9 6.9 7.5 6.0 6.6 6.2 6.1 6.0 5.8 5.7 7.8 8.1 8.1 7.0 5.8 6.3 5.9 7.0 6.7 6.5 6.5 6.8 7.0 6.7 6.5 6.6 6.7 6.7 6.7 6.8 6.7 6.8
8.1 8.7 7.1 7.6 7.8 7.4 7.3 8.0 8.7 7.9 7.7 7.8 7.4 7.1 7.4 6.5 6.0 5.7 5.3 5.4 5.6 6.6 7.4 7.7 7.7 7.7 7.1 6.8 6.8 6.6 6.3 6.8 6.7 7.0 7.1 7.1 6.9 6.7 6.7 6.7 6.8 6.9 6.9 6.8
8.2 8.6 8.7 7.5 8.1 7.3 7.5 8.0 8.0 7.9 8.5 8.0 7.2 6.4 6.3 6.9 5.3 5.6 5.2 5.1 5.4 6.4 6.6 7.4 7.5 7.2 7.0 6.8 7.0 6.8 6.7 6.2 7.1 7.4 7.6 7.5 7.4 7.0 6.7 6.6 6.6 6.7 6.8 6.9
7.4 7.7 8.2 8.7 8.0 8.1 7.7 7.1 7.8 7.2 7.9 7.2 7.1 6.5 6.9 6.2 6.2 5.8 5.4 5.4 5.3 5.8 6.8 6.7 7.2 7.1 6.9 6.8 6.8 6.6 6.6 6.8 8.0 8.1 7.9 7.6 7.5 7.4 7.1 6.7 6.5 6.6 6.7 6.8
6.9 7.7 7.2 7.9 8.2 8.5 8.2 7.4 6.8 7.0 7.6 7.1 7.2 6.7 6.4 5.9 5.3 5.6 5.7 5.7 5.8 6.2 6.5 6.7 7.2 7.2 7.1 7.1 7.2 7.2 7.2 7.3 7.4 8.1 7.8 7.7 7.8 7.7 7.4 7.0 6.6 6.4 6.4 6.6
6.5 6.5 7.0 7.3 7.6 7.8 7.7 7.3 7.3 7.0 6.7 6.9 6.8 6.6 6.4 6.0 5.4 5.7 5.8 5.6 5.9 5.9 6.4 6.9 7.2 7.5 7.5 7.2 7.2 7.5 7.2 7.4 7.8 7.9 8.2 8.0 8.2 7.9 7.6 7.4 6.9 6.5 6.3 6.2
6.5 6.2 6.2 6.5 6.8 7.6 6.9 6.9 6.8 6.7 6.9 7.3 7.1 6.6 6.2 6.6 5.9 5.1 6.1 6.1 6.3 5.8 6.2 6.7 7.2 7.5 7.6 7.3 7.3 7.8 7.7 7.6 7.9 8.0 8.0 8.2 8.4 8.2 7.9 7.6 7.3 6.9 6.7 6.4
6.1 6.4 6.5 6.6 6.9 6.7 7.0 7.1 6.6 6.4 6.6 7.3 7.2 7.2 6.6 6.2 6.4 6.3 6.0 6.1 6.2 6.1 6.3 6.6 7.1 7.1 7.2 7.4 7.5 7.5 7.6 7.9 7.4 8.6 8.4 8.2 8.6 8.5 8.3 7.8 7.5 7.1 6.9 6.8
6.3 6.6 6.5 6.7 6.2 6.3 6.4 6.2 6.4 6.9 7.1 7.0 7.1 7.1 6.5 6.2 6.0 5.8 6.4 6.2 6.0 6.4 6.5 6.5 7.0 6.9 6.9 7.0 7.1 7.3 7.1 7.4 7.1 8.0 8.7 8.5 8.4 8.5 8.4 8.2 7.8 7.4 7.1 6.9
6.1 6.1 6.1 6.1 6.0 5.7 6.2 6.5 6.6 7.1 7.2 7.3 7.1 7.2 6.7 6.4 5.9 5.5 5.8 5.6 5.7 5.9 5.7 5.6 6.0 6.4 6.4 6.6 6.6 6.7 6.7 6.9 7.1 7.5 8.0 8.2 8.1 8.5 8.5 8.5 8.1 7.8 7.4 7.0
Wind_Speed
17 11 16 19 20 20 20 20 17 17 18 19 16 16 15 9 3 11 15 20 25 23 19 19 18 18 18 16 16 12 10 14 10 8 6 5 5 4 6 9 13 8 9 9
14 19 18 18 20 21 21 21 19 17 18 17 18 19 20 12 10 28 29 21 21 25 23 18 18 19 19 18 17 13 11 14 10 8 6 5 5 5 4 8 10 11 8 11
19 15 21 20 18 19 18 19 18 17 17 16 16 15 15 9 3 13 25 24 22 23 26 22 20 19 18 19 18 16 13 14 11 8 6 4 5 3 3 5 6 5 9 9
19 21 18 20 21 18 19 16 19 18 16 13 17 15 26 20 14 17 10 10 24 22 25 24 23 20 20 19 17 17 14 14 11 9 8 7 5 4 4 5 7 7 11 9
17 21 21 19 17 21 18 16 14 16 18 18 22 14 9 26 25 13 15 23 21 25 26 27 25 21 21 19 19 17 16 14 13 12 8 8 7 6 5 5 8 7 5 8
16 17 20 22 18 14 16 17 18 17 15 16 20 18 17 17 19 14 22 26 21 26 24 25 25 23 20 19 19 19 19 16 14 14 12 10 11 7 5 5 7 8 7 4
16 19 20 17 19 22 18 15 12 14 14 16 19 19 14 15 28 26 25 25 25 23 24 22 24 23 22 24 23 20 22 19 18 18 15 11 12 11 7 7 8 9 8 8
14 11 21 17 20 20 18 19 14 18 13 16 20 19 18 23 21 29 31 24 28 26 22 24 24 23 23 22 23 22 23 21 20 18 18 13 12 9 8 6 6 4 7 7
10 14 18 13 24 20 20 21 21 23 20 17 17 17 23 21 18 8 9 6 10 16 26 26 24 24 23 23 23 23 22 22 21 20 16 15 12 11 10 7 5 6 5 1
10 17 19 15 16 25 21 18 20 15 21 22 19 19 15 19 19 19 16 7 5 16 31 24 24 24 22 23 21 21 21 23 22 22 18 16 16 15 9 10 8 7 5 5
13 12 20 19 11 15 13 19 21 14 17 16 15 15 15 23 21 18 21 21 21 24 20 9 23 23 23 23 22 22 21 22 21 20 19 18 17 16 15 11 11 11 8 6
16 8 14 18 20 14 14 18 19 12 15 14 16 16 17 13 22 19 13 21 22 19 17 33 21 25 24 23 23 23 22 21 21 20 19 19 17 18 17 15 13 12 8 6
12 7 11 15 16 19 15 17 20 20 19 20 15 18 6 10 6 17 16 11 5 23 33 33 30 20 22 22 21 22 22 22 21 19 19 19 18 18 19 18 15 14 14 11
8 12 17 16 14 18 15 19 22 20 16 18 19 19 2 6 22 12 15 15 13 12 10 8 5 16 19 21 20 19 20 21 21 21 20 20 20 19 18 17 17 15 13 14
8 15 18 22 22 23 21 21 18 18 22 20 18 18 14 20 23 16 10 11 12 10 13 14 17 12 8 18 18 18 18 19 20 19 21 21 19 19 17 17 17 17 16 14
3 13 13 20 22 19 24 23 21 19 15 19 19 18 18 3 12 18 16 16 15 14 15 17 18 17 13 17 19 18 18 18 16 19 21 19 18 18 18 17 16 16 16 16
9 8 8 12 17 20 20 23 19 19 18 16 18 16 8 10 7 11 17 9 15 17 17 16 15 14 14 9 22 16 16 15 16 15 17 18 18 19 19 18 17 17 18 17
15 12 5 7 13 10 14 20 17 24 23 20 20 18 20 7 8 12 11 12 13 15 16 16 15 16 17 16 17 14 9 15 13 15 15 17 18 18 18 18 18 17 16 17
12 12 5 5 11 13 28 7 9 16 10 14 15 18 20 16 2 16 18 16 15 14 14 15 14 16 16 16 16 13 12 8 18 16 16 16 17 17 18 19 19 17 16 15
13 13 12 12 11 5 14 6 7 12 10 14 14 14 15 12 11 7 16 17 15 13 13 15 15 14 14 16 21 17 13 12 14 18 15 14 16 17 18 19 18 16 15 16
8 4 11 14 14 13 5 2 13 10 4 13 14 12 11 10 11 15 14 14 17 11 14 15 14 11 11 13 15 18 15 14 11 15 16 15 15 17 17 16 15 15 16 15
4 6 4 6 9 12 14 5 6 8 10 12 13 14 13 11 11 14 16 15 13 12 13 14 13 13 12 14 13 16 15 18 17 11 16 16 16 13 14 16 15 16 15 15
1 1 2 3 7 22 19 15 19 14 12 13 11 14 17 18 13 12 12 14 14 13 10 12 12 12 13 14 14 16 19 19 21 11 14 16 14 14 14 15 15 13 14 13
4 5 3 9 8 20 19 10 11 13 13 17 15 17 16 18 16 17 13 10 12 13 11 11 12 13 12 12 13 15 18 19 20 14 12 12 13 13 14 11 13 12 12 13
2 6 5 10 10 18 11 19 16 15 16 17 16 17 17 17 15 15 15 12 10 11 11 10 10 10 11 11 11 13 16 18 16 11 8 10 10 11 12 14 12 13 14 13
4 3 2 4 13 10 13 17 18 17 15 15 16 18 18 16 14 15 14 12 10 10 10 8 11 9 11 11 10 12 14 16 15 11 9 5 8 9 11 11 9 8 8 11
Wind_Direction
208 210 219 228 231 242 266 278 243 237 218 235 203 134 147 131 221 286 257 178 171 178 187 174 177 167 161 170 160 174 175 150 158 159 190 222 156 181 178 175 181 151 151 141
196 227 232 233 235 235 254 267 276 278 245 229 205 157 160 150 184 215 243 172 187 173 176 187 187 172 169 171 163 174 171 157 162 164 199 203 171 215 181 142 140 149 168 145
231 230 218 241 239 244 236 252 263 274 288 234 236 151 164 212 270 237 234 170 184 174 173 181 187 181 176 171 166 169 171 160 167 185 196 219 203 197 188 117 142 180 173 172
237 241 259 215 241 242 247 240 259 273 272 263 222 251 178 163 208 210 198 285 176 186 171 181 185 186 182 171 167 167 174 164 177 195 186 195 207 192 180 139 195 171 175 185
247 238 241 245 231 242 252 255 252 249 264 272 261 228 240 168 182 171 149 252 203 180 181 183 189 190 182 172 171 170 175 171 179 200 196 188 215 216 193 189 152 154 175 184
276 272 243 244 244 251 257 252 266 262 239 250 252 258 223 170 188 194 188 209 225 173 190 187 182 181 187 179 175 171 175 181 182 196 211 188 207 225 191 188 148 157 168 192
234 244 261 246 244 241 235 238 236 237 237 238 236 249 254 215 184 183 197 214 184 176 180 192 182 182 185 184 180 176 175 183 185 186 204 210 198 220 248 189 177 178 180 186
290 270 212 240 239 238 221 229 229 228 233 238 228 239 230 260 269 186 193 189 180 183 178 185 183 184 183 187 183 182 176 181 184 189 197 202 200 213 219 205 193 194 203 195
321 265 293 286 224 224 240 220 245 256 250 246 241 217 242 232 233 162 106 145 169 302 175 184 182 183 181 187 187 185 176 182 183 193 192 196 203 212 203 219 209 201 240 142
306 309 299 280 291 227 229 249 220 243 249 260 259 253 205 218 232 197 173 123 101 267 286 183 181 180 182 186 187 185 180 183 188 188 191 196 201 199 213 205 214 213 231 221
319 293 287 300 271 260 226 240 253 264 235 254 256 263 257 195 206 224 164 159 158 220 278 244 183 181 181 179 185 185 187 181 186 189 194 196 196 204 205 213 207 198 221 234
315 305 289 273 275 277 280 283 245 246 255 249 256 258 23 9 193 205 217 174 169 145 199 251 241 177 179 179 182 187 187 186 188 190 192 198 199 198 202 210 202 201 204 196
348 312 297 261 274 267 253 252 257 264 245 263 241 251 288 344 288 197 194 243 200 184 181 200 221 175 174 180 180 185 188 190 185 189 196 197 201 200 205 203 210 195 201 205
322 280 275 283 290 329 308 251 257 259 247 242 249 264 69 19 15 80 64 57 46 29 39 31 50 176 175 176 179 182 186 187 191 188 194 201 202 204 202 202 203 209 196 197
290 271 270 274 289 310 289 287 286 269 261 266 271 249 28 10 355 16 24 68 66 40 28 25 27 23 156 207 176 180 183 189 188 192 194 199 202 203 202 204 201 204 207 203
312 278 278 286 277 273 279 268 261 270 277 281 280 295 98 312 319 332 14 26 39 39 29 17 12 4 22 320 170 180 184 186 193 192 194 196 195 197 206 204 205 201 207 205
239 197 287 284 282 289 264 253 259 263 254 254 262 273 272 38 264 6 356 5 15 16 15 6 1 345 344 16 306 176 185 188 191 196 194 191 193 197 199 203 205 206 204 207
264 253 244 271 296 265 257 265 282 247 261 255 265 280 282 118 36 13 345 15 24 15 358 351 350 340 331 334 336 338 200 188 201 196 194 192 193 195 196 201 206 209 208 207
258 271 209 250 266 276 284 24 357 347 259 23 10 14 25 14 15 51 5 359 14 4 357 349 342 332 324 317 306 312 312 266 196 208 202 193 192 194 194 200 206 207 209 210
329 302 263 240 245 275 32 347 347 321 256 24 17 20 6 342 210 26 354 340 359 6 358 346 329 331 335 338 332 320 295 278 221 203 203 198 191 193 196 199 202 203 207 212
322 357 258 264 269 250 186 50 332 260 356 357 355 359 356 338 338 324 325 326 330 13 353 344 333 340 357 337 333 320 303 287 266 207 203 196 193 196 196 197 199 203 206 209
307 329 330 290 249 266 14 250 261 322 322 326 335 336 328 322 322 318 321 310 325 345 354 338 338 335 354 352 345 328 330 338 272 245 194 205 200 194 194 195 200 204 205 209
318 87 291 285 318 309 359 338 322 328 312 320 326 318 320 312 319 312 311 311 320 327 348 336 338 340 348 349 348 332 337 338 329 241 195 197 196 197 200 195 202 204 206 209
49 39 282 329 338 334 322 304 340 338 339 321 311 302 301 299 304 307 308 322 316 320 332 331 336 344 343 348 352 341 337 337 324 225 183 190 191 194 198 205 200 205 204 206
14 326 318 284 312 330 335 336 330 316 311 297 301 298 295 292 287 291 297 307 301 311 320 326 328 335 340 340 349 345 341 340 333 321 190 189 194 193 198 210 202 204 209 208
181 207 247 296 318 296 295 312 317 311 315 308 299 293 288 281 285 273 278 283 296 300 302 315 316 334 336 343 346 347 347 340 341 351 2 278 212 202 206 205 216 42 225 145